Location: Newark
(9.5976°N, 77.1728°E)
Time: 17:07:59
(UTC+00:00)

Envisat - Visible Passes

Search period start: 07 December 2019 00:00
Search period end: 17 December 2019 00:00
Orbit: 764 x 766 km, 98.1° (Epoch: 07 December)

Date Brightness Start Highest point End Pass type
(mag) Time Alt. Az. Time Alt. Az. Time Alt. Az.
07 Dec 6.1 14:20:32 10° SW 14:22:57 13° W 14:25:24 10° WNW visible
08 Dec 4.5 13:41:33 10° SSW 13:46:14 38° W 13:50:55 10° NNW visible
09 Dec 6.0 00:29:39 10° NE 00:33:13 19° E 00:36:47 10° SE visible
09 Dec 2.9 13:04:28 10° SSE 13:09:32 75° ENE 13:14:35 10° N visible
10 Dec 5.7 14:08:14 10° SW 14:11:42 19° W 14:15:10 10° WNW visible
11 Dec 3.9 13:30:03 10° S 13:34:58 52° W 13:39:53 10° NNW visible
12 Dec 6.2 00:19:20 10° ENE 00:21:57 14° E 00:24:34 10° SE visible
12 Dec 3.1 12:53:21 10° SSE 12:58:17 55° ENE 13:03:13 10° N visible
13 Dec 5.3 13:56:19 10° SSW 14:00:25 25° W 14:04:33 10° NW visible
14 Dec 3.3 13:18:39 10° S 13:23:42 72° WSW 13:28:45 10° NNW visible
15 Dec 6.2 14:24:06 10° WSW 14:25:53 12° W 14:27:41 10° WNW visible
16 Dec 4.8 13:44:36 10° SSW 13:49:09 34° W 13:53:42 10° NW visible
